WICK current weather conditions

sailwx.info

Wind from 270 at 15 knots

Air temperature 4.0° C
Visibility: greater than 5.4 NM
Dewpoint -0.0° C

Last reported at 2014-Dec-22 16:20 UTC.
Time now 2014-Dec-22 17:46 UTC

Location: N 58°27' W 003°05'.
View on Google Maps.

See reports from other nearby stations

  
Tides and Currents Weather Stations Pressure Air Temp Water Temp Dewpoint Dewpoint Depression Visibility Wind Speed Wind Dir Waves Ship Positions
date/time (UTC)wind fromknots sea level pressurealtimeterstation pressurevisibilityair tempwater tempwave heightnotes
2014-Dec-22 16:20 270 15 5.4 4.0
2014-Dec-22 15:50 250 9 5.4 4.0
2014-Dec-22 15:20 260 11 5.4 4.0
2014-Dec-22 14:50 260 17 5.4 5.0
2014-Dec-22 14:20 260 13 5.4 4.0
2014-Dec-22 13:50 260 15 5.4 4.0
2014-Dec-22 13:20 270 19 5.4 4.0
2014-Dec-22 12:50 260 15 gusting 26 5.4 5.0
2014-Dec-22 12:20 260 17 5.4 5.0
2014-Dec-22 11:50 260 18 5.4 5.0
2014-Dec-22 11:20 270 14 5.4 5.0
2014-Dec-22 10:50 250 10 5.4 4.0
2014-Dec-22 10:20 260 14 5.4 4.0
2014-Dec-22 09:50 270 18 5.4 4.0
2014-Dec-22 09:20 260 11 5.4 4.0
2014-Dec-22 08:50 270 13 5.4 4.0
2014-Dec-22 08:20 270 13 5.4 4.0
2014-Dec-22 07:50 270 18 5.4 4.0
2014-Dec-22 07:20 280 11 5.4 4.0
2014-Dec-22 06:50 270 10 5.4 4.0
2014-Dec-22 06:20 270 13 5.4 4.0
2014-Dec-22 05:50 270 12 5.4 4.0
2014-Dec-22 05:20 260 7 5.4 4.0
2014-Dec-22 04:50 270 4 5.4 4.0
2014-Dec-22 04:20 270 10 5.4 5.0
2014-Dec-22 03:50 250 5 5.4 4.0
2014-Dec-22 03:20 270 10 5.4 5.0
2014-Dec-22 02:50 250 8 5.4 5.0
2014-Dec-22 02:20 250 8 5.4 5.0
2014-Dec-22 01:50 260 9 5.4 5.0
2014-Dec-22 01:20 270 16 5.4 5.0
2014-Dec-22 00:50 270 17 5.4 6.0
2014-Dec-22 00:20 270 15 5.4 5.0
2014-Dec-21 23:50 260 12 5.4 6.0
2014-Dec-21 23:20 270 14 5.4 6.0
2014-Dec-21 22:50 260 7 5.4 5.0
2014-Dec-21 22:20 280 13 5.4 6.0
2014-Dec-21 21:50 270 13 5.4 6.0
2014-Dec-21 21:20 270 14 5.4 7.0
2014-Dec-21 20:50 260 12 5.4 7.0
2014-Dec-21 20:20 250 8 5.4 7.0
2014-Dec-21 19:50 260 13 5.4 8.0
2014-Dec-21 19:20 260 8 5.4 8.0
2014-Dec-21 18:50 260 7 5.4 7.0
2014-Dec-21 18:20 260 8 5.4 8.0
2014-Dec-21 17:50 250 7 5.4 8.0
2014-Dec-21 17:20 270 12 5.4 9.0 Light rain.
2014-Dec-21 16:50 260 9 5.4 8.0 Light rain.
2014-Dec-21 16:20 250 11 5.4 9.0 Light rain.
2014-Dec-21 15:50 250 12 5.4 9.0 Drizzle.
2014-Dec-21 15:20 250 14 5.4 9.0
2014-Dec-21 14:50 250 16 5.4 9.0
2014-Dec-21 14:20 240 11 5.4 9.0
2014-Dec-21 13:50 250 16 5.4 9.0
2014-Dec-21 13:20 250 16 5.410.0
2014-Dec-21 12:50 270 15 5.4 9.0
2014-Dec-21 12:20 250 13 5.4 9.0
2014-Dec-21 11:50 250 16 5.4 9.0
2014-Dec-21 11:20 250 14 5.4 9.0
2014-Dec-21 10:50 250 13 5.4 9.0
2014-Dec-21 10:20 250 13 5.4 9.0
2014-Dec-21 09:50 250 15 5.4 9.0
2014-Dec-21 09:20 250 12 5.4 9.0 Light rain.
2014-Dec-21 08:50 250 16 5.4 9.0
2014-Dec-21 08:20 240 8 5.4 8.0
2014-Dec-21 07:50 250 10 5.4 8.0
2014-Dec-21 07:20 250 9 5.4 8.0 Light drizzle.
2014-Dec-21 06:50 210 10 5.4 7.0
2014-Dec-21 06:20 210 14 5.4 7.0
2014-Dec-21 05:50 220 13 5.4 7.0
2014-Dec-21 05:20 220 13 5.4 6.0
2014-Dec-21 04:50 210 13 5.4 6.0
2014-Dec-21 04:20 210 13 5.4 6.0
2014-Dec-21 03:50 210 11 5.4 6.0
2014-Dec-21 03:20 210 12 5.4 6.0 Light rain.
2014-Dec-21 02:50 210 11 5.4 6.0 Light rain.
2014-Dec-21 02:20 210 9 5.4 5.0
2014-Dec-21 01:50 210 9 5.4 5.0 Light rain.
2014-Dec-21 01:20 210 9 5.4 5.0 Drizzle.
2014-Dec-21 00:50 220 11 5.4 5.0 Light rain.
2014-Dec-21 00:20 220 11 5.4 5.0 Light drizzle.
2014-Dec-20 23:50 210 11 5.4 5.0
2014-Dec-20 23:20 220 8 5.4 5.0
2014-Dec-20 22:50 210 8 5.4 5.0
2014-Dec-20 22:20 230 6 5.4 4.0
2014-Dec-20 21:50 240 7 5.4 4.0
2014-Dec-20 21:20 250 8 5.4 4.0
2014-Dec-20 20:50 250 6 5.4 4.0
2014-Dec-20 20:20 250 6 5.4 4.0
2014-Dec-20 19:50 260 7 5.4 4.0
2014-Dec-20 19:20 260 7 5.4 4.0
2014-Dec-20 18:50 270 10 5.4 4.0
2014-Dec-20 18:20 250 9 5.4 4.0
2014-Dec-20 17:50 260 9 5.4 4.0
2014-Dec-20 17:20 280 10 5.4 4.0